Flag for U.S.A. Weather past 2 weeks in Cape Coral, Florida, U.S.A.

Now
59 °F

Clear.


Feels Like: 57 °F
Forecast: 59 / 72 °F
Wind: 12 mph from Northeast

Location: Page Field

Current Time: Mar 28, 2015 at 8:58:02 AM

Latest Report: Mar 28, 2015 at 7:53 AM


Visibility: 10 mi

Pressure: 30.11 "Hg

Humidity: 69%

Dew point: 49 °F

Location of Cape CoralLocation

Historic Weather in Cape Coral — Graph

°F

Cape Coral temperature yesterday

Maximum temperature yesterday: 81 °F (at 11:53 AM)
Minimum temperature yesterday: 68 °F (at 5:04 PM)
Average temperature yesterday: 73 °F

Past Weeks' High & Low Weather Summary

 TemperatureHumidityPressure
High88 °F (Mar 13, 2:53 PM)100% (Mar 14, 7:53 AM)30.20 "Hg (Mar 14, 7:53 AM)
Low59 °F (Mar 28, 7:53 AM)37% (Mar 17, 2:53 PM)29.88 "Hg (Mar 27, 8:53 AM)
Average74 °F76%30.04 "Hg
* Reported Mar 13 7:53 AM — Mar 28 7:53 AM, Cape Coral, Weather by CustomWeather, © 2015

Note: Actual official high and low records may vary slightly from our data, if they occured in-between our weather recording intervals... More about our weather records

Advertising

Cape Coral weather history for previous 24 hours

 ConditionsComfort  
Time TempWeatherWind HumidityBarometerVisibility
7:53 AM
Sat, Mar 28
59 °FClear.12 mph69%30.11 "Hg10 mi
6:53 AM60 °FClear.9 mph72%30.09 "Hg10 mi
5:53 AM60 °FClear.8 mph75%30.06 "Hg10 mi
4:53 AM62 °FClear.7 mph70%30.05 "Hg10 mi
3:53 AM62 °FClear.10 mph70%30.03 "Hg10 mi
2:53 AM64 °FClear.12 mph73%30.02 "Hg10 mi
1:53 AM64 °FClear.9 mph73%30.02 "Hg10 mi
12:53 AM66 °FClear.16 mph63%30.00 "Hg10 mi
11:53 PM
Fri, Mar 27
68 °FClear.17 mph73%29.98 "Hg10 mi
10:53 PM69 °FMostly cloudy.12 mph87%29.97 "Hg10 mi
9:53 PM69 °FLight rain. Mostly cloudy.13 mph93%29.93 "Hg9 mi
8:53 PM68 °FLight rain. Overcast.9 mph96%29.91 "Hg7 mi
7:53 PM68 °FLight rain. Partly sunny.8 mph93%29.91 "Hg9 mi
6:53 PM68 °FLight rain. Fog.8 mph100%29.90 "Hg4 mi
5:53 PM69 °FRain. Fog.10 mph93%29.91 "Hg4 mi
5:04 PM68 °FHeavy rain. Fog.12 mph96%29.89 "Hg2 mi
4:53 PM69 °FRain. Fog.12 mph93%29.89 "Hg3 mi
3:53 PM69 °FThunderstorms. Fog.8 mph93%29.88 "Hg3 mi
2:53 PM79 °FCloudy.17 mph69%29.88 "Hg10 mi
1:53 PM81 °FPassing clouds.14 mph67%29.89 "Hg10 mi
12:53 PM80 °FPassing clouds.14 mph67%29.91 "Hg10 mi
11:53 AM81 °FSunny.14 mph69%29.91 "Hg10 mi
10:53 AM77 °FPassing clouds.12 mph88%29.92 "Hg7 mi
9:53 AM78 °FFog.10 mph87%29.90 "Hg6 mi
8:53 AM75 °FFog.13 mph94%29.88 "Hg4 mi
Weather by CustomWeather, © 2015

See weather overviewHow to use our weather pages